Retour au catalogue

USA 414

ActifMilitaireVLEO
NORAD 61035·PAYLOAD·🇺🇸 United States

Lancé Sep 6, 2024 depuis Vandenberg Space Force Base

Loading…

Prochains Passages (prochaines 24 heures)

TLE

PériméSource: Mike McCants

Époque: Aug 23, 2026, 00:24 UTC

1 61035U 24160Q   26235.01705749 0.00000000  00000-0  00000-0 0    02
2 61035  70.0170 204.0389 0002000  79.0860 280.9139 14.96713200    05

Suivez USA 414 en temps réel avec AllMySat

Download on the App Store